| time (UTC) | temp C | wind direction | speed KPH | gust KPH | rain 1hr cm | rain 24hr cm | rain mn cm | humidity % | barometer mb |
| 20260503214521 | -17 | 0.0 | 0.0 | 0.00 | 0.00 | 0.00 | 968.2 | ||
| 20260503213017 | -17 | 0.0 | 0.0 | 0.00 | 0.00 | 0.00 | 974.3 | ||
| 20260503211513 | -17 | 0.0 | 0.0 | 0.00 | 0.00 | 0.00 | 981.8 | ||
| 20260503210010 | -17 | 0.0 | 0.0 | 0.00 | 0.00 | 0.00 | 978.7 | ||
| 20260503204535 | -17 | 0.0 | 0.0 | 0.00 | 0.00 | 0.00 | 968.7 | ||
| 20260503203030 | -17 | 0.0 | 0.0 | 0.00 | 0.00 | 0.00 | 999.8 | ||
| 20260503201524 | -17 | 0.0 | 0.0 | 0.00 | 0.00 | 0.00 | 991.9 | ||
| 20260503200020 | -17 | 0.0 | 0.0 | 0.00 | 0.00 | 0.00 | 991.9 | ||
| 20260503194515 | -17 | 0.0 | 0.0 | 0.00 | 0.00 | 0.00 | 998.0 | ||
| 20260503193010 | -17 | 0.0 | 0.0 | 0.00 | 0.00 | 0.00 | 996.0 | ||
| 20260503191504 | -17 | 0.0 | 0.0 | 0.00 | 0.00 | 0.00 | 996.0 | ||
| 20260503190109 | -17 | 0.0 | 0.0 | 0.00 | 0.00 | 0.00 | 996.0 | ||
| 20260503184557 | -17 | 0.0 | 0.0 | 0.00 | 0.00 | 0.00 | 992.7 | ||
| 20260503183100 | -17 | 0.0 | 0.0 | 0.00 | 0.00 | 0.00 | 987.1 | ||
| 20260503181545 | -17 | 0.0 | 0.0 | 0.00 | 0.00 | 0.00 | 990.9 | ||
| 20260503180052 | -17 | 0.0 | 0.0 | 0.00 | 0.00 | 0.00 | 1001.3 | ||
| 20260503174536 | -17 | 0.0 | 0.0 | 0.00 | 0.00 | 0.00 | 991.0 | ||
| 20260503173036 | -17 | 0.0 | 0.0 | 0.00 | 0.00 | 0.00 | 996.0 | ||
| 20260503171535 | -17 | 0.0 | 0.0 | 0.00 | 0.00 | 0.00 | 990.5 | ||
| 20260503120137 | 24 | 350 | 0.0 | 0.0 | 0.00 | 0.00 | 0.00 | 43 | 1003.2 |
| 20260503110115 | 25 | 354 | 3.2 | 8.0 | 0.00 | 0.00 | 0.00 | 38 | 996.5 |
| 20260503100106 | 24 | 301 | 3.2 | 9.7 | 0.00 | 0.00 | 0.00 | 40 | 1001.1 |
| 20260503081548 | 25 | 338 | 3.2 | 8.0 | 0.00 | 0.00 | 0.00 | 39 | 996.2 |
| 20260503071548 | 24 | 287 | 3.2 | 4.8 | 0.00 | 0.00 | 0.00 | 41 | 983.4 |
| 20260503054503 | 25 | 343 | 3.2 | 9.7 | 0.00 | 0.00 | 0.00 | 39 | 961.9 |
| 20260503053100 | 25 | 335 | 3.2 | 9.7 | 0.00 | 0.00 | 0.00 | 38 | 974.6 |
| 20260503051601 | 25 | 327 | 3.2 | 8.0 | 0.00 | 0.00 | 0.00 | 39 | 967.3 |
| 20260503050058 | 25 | 335 | 3.2 | 6.4 | 0.00 | 0.00 | 0.00 | 39 | 967.3 |
| 20260503044558 | 26 | 330 | 3.2 | 8.0 | 0.00 | 0.00 | 0.00 | 39 | 967.3 |
| 20260503043026 | 26 | 337 | 4.8 | 9.7 | 0.00 | 0.00 | 0.00 | 39 | 947.4 |
| 20260503041525 | 26 | 328 | 3.2 | 8.0 | 0.00 | 0.00 | 0.00 | 37 | 969.8 |
| 20260503040026 | 26 | 325 | 3.2 | 11.3 | 0.00 | 0.00 | 0.00 | 38 | 969.8 |
| 20260503034521 | 26 | 322 | 1.6 | 8.0 | 0.00 | 0.00 | 0.00 | 38 | 957.9 |
| 20260503033026 | 26 | 310 | 1.6 | 4.8 | 0.00 | 0.00 | 0.00 | 37 | 958.0 |
| 20260503031519 | 26 | 306 | 1.6 | 6.4 | 0.00 | 0.00 | 0.00 | 36 | 943.1 |
| 20260503030017 | 26 | 309 | 3.2 | 8.0 | 0.00 | 0.00 | 0.00 | 35 | 943.1 |
| 20260503024520 | 26 | 291 | 1.6 | 4.8 | 0.00 | 0.00 | 0.00 | 33 | 938.3 |
| 20260503023016 | 27 | 279 | 1.6 | 8.0 | 0.00 | 0.00 | 0.00 | 35 | 938.3 |
| 20260503021519 | 27 | 260 | 1.6 | 4.8 | 0.00 | 0.00 | 0.00 | 36 | 938.3 |
| 20260503020014 | 27 | 258 | 1.6 | 4.8 | 0.00 | 0.00 | 0.00 | 36 | 906.7 |
| 20260503014513 | 27 | 241 | 1.6 | 8.0 | 0.00 | 0.00 | 0.00 | 35 | 906.7 |
| 20260503013012 | 28 | 256 | 1.6 | 8.0 | 0.00 | 0.00 | 0.00 | 33 | 913.0 |
| 20260503011513 | 28 | 214 | 1.6 | 6.4 | 0.00 | 0.00 | 0.00 | 32 | 936.9 |
| 20260503010015 | 29 | 230 | 1.6 | 4.8 | 0.00 | 0.00 | 0.00 | 28 | 936.9 |
| 20260503004521 | 30 | 202 | 1.6 | 6.4 | 0.00 | 0.00 | 0.00 | 27 | 917.4 |
| 20260503003011 | 30 | 221 | 1.6 | 6.4 | 0.00 | 0.00 | 0.00 | 26 | 917.4 |
| 20260503001509 | 30 | 204 | 1.6 | 8.0 | 0.00 | 0.00 | 0.00 | 25 | 928.2 |
| 20260503000006 | 30 | 227 | 3.2 | 6.4 | 0.00 | 0.00 | 0.00 | 27 | 922.6 |
| 20260502234506 | 30 | 225 | 3.2 | 6.4 | 0.00 | 0.00 | 0.00 | 26 | 963.3 |
| 20260502233009 | 30 | 213 | 3.2 | 6.4 | 0.00 | 0.00 | 0.00 | 27 | 957.0 |
| 20260502231504 | 30 | 220 | 3.2 | 11.3 | 0.00 | 0.00 | 0.00 | 28 | 965.3 |
| 20260502230034 | 31 | 186 | 1.6 | 6.4 | 0.00 | 0.00 | 0.00 | 28 | 965.3 |
| 20260502224533 | 31 | 231 | 3.2 | 8.0 | 0.00 | 0.00 | 0.00 | 29 | 965.3 |
| 20260502223036 | 31 | 216 | 3.2 | 6.4 | 0.00 | 0.00 | 0.00 | 29 | 965.3 |
| 20260502221530 | 31 | 216 | 1.6 | 8.0 | 0.00 | 0.00 | 0.00 | 30 | 964.7 |
| 20260502220029 | 31 | 189 | 3.2 | 6.4 | 0.00 | 0.00 | 0.00 | 30 | 977.0 |